Wind_Speed
13 13 13 13 13 13 14 14 14 15 15 14 14 13 13 14 14 14 14 14 14 14 14 15 16 16 16 16 16 17 18 18 18 18 19 19 20 21 21 21 21 21 22
15 15 15 15 15 15 15 16 16 16 16 16 16 16 16 16 16 16 16 15 15 15 16 16 16 17 18 18 18 19 19 19 19 19 19 20 20 21 21 21 22 22 22
17 17 17 17 17 17 17 18 18 18 18 18 18 17 17 17 17 18 17 17 17 18 18 18 18 18 19 20 20 20 21 21 21 20 21 21 21 21 22 22 22 22 23
20 19 20 20 20 20 20 20 20 20 20 20 20 20 20 19 19 19 19 19 19 20 20 20 20 20 20 20 21 22 22 22 22 22 22 22 22 22 22 22 22 23 23
23 22 22 23 23 23 22 22 22 22 22 23 23 22 21 20 21 21 21 21 21 21 22 21 21 22 22 22 22 23 23 23 23 23 23 23 23 23 23 23 23 24 24
27 26 25 25 25 25 25 25 24 24 25 24 24 23 23 23 23 23 23 23 24 24 24 23 23 23 23 23 23 24 24 24 24 24 25 25 25 25 25 25 25 25 25
29 29 28 28 27 28 27 27 27 26 26 26 25 26 26 26 25 25 25 25 25 25 25 25 25 25 26 26 25 26 26 26 26 26 26 26 26 26 26 26 27 27 27
32 32 31 30 30 30 29 29 29 29 28 27 27 28 27 28 28 27 27 27 27 28 28 28 27 28 28 28 27 27 28 28 28 28 28 28 28 28 27 27 28 28 28
35 34 34 33 33 32 32 31 31 31 30 29 29 29 29 30 30 30 29 30 30 30 31 30 30 30 30 30 30 30 30 30 30 30 29 29 29 29 29 29 29 29 30
37 37 37 37 36 36 35 34 34 34 33 32 31 31 32 32 32 32 32 32 31 32 32 31 32 32 32 32 32 32 32 32 31 31 30 30 30 30 30 31 31 31 31
40 41 40 40 39 39 38 37 38 37 36 35 34 33 34 34 34 34 33 33 33 32 32 32 32 33 34 34 33 32 32 32 32 31 31 31 31 31 32 32 33 33 33
43 43 43 42 42 41 41 40 39 38 38 37 37 36 35 35 35 35 34 33 33 33 33 33 34 35 35 34 34 33 33 34 33 33 32 32 33 33 34 34 34 34 34
45 45 44 44 43 43 42 41 41 40 39 38 38 37 36 35 34 34 34 34 33 34 34 34 35 36 36 35 34 35 35 35 35 34 34 34 35 35 36 36 36 35 35
46 45 45 45 44 44 44 43 42 41 40 39 39 38 37 36 37 36 36 36 35 36 36 37 37 37 37 36 35 35 35 35 35 35 35 36 36 36 36 36 36 36 36
46 45 44 44 44 44 44 43 43 42 42 41 42 41 39 37 37 37 37 38 38 38 39 39 38 38 37 37 37 37 37 37 37 36 36 36 36 37 37 37 37 37 37
45 45 44 43 44 44 45 43 42 42 42 42 42 42 41 40 39 40 40 40 40 40 40 40 39 39 39 38 38 38 38 38 38 38 38 38 37 38 38 38 38 37 37
47 46 45 45 45 45 45 45 45 44 44 44 43 42 42 42 42 42 41 41 41 41 40 40 40 40 40 40 39 39 38 38 37 37 37 38 37 37 38 38 38 38 38
47 47 47 46 45 45 46 46 46 46 45 44 44 43 42 42 42 43 42 41 41 41 41 41 40 40 40 40 39 39 38 38 37 37 37 37 37 37 37 38 38 38 38
46 46 46 45 44 45 45 45 45 44 43 43 43 43 42 42 42 42 42 41 41 41 40 40 40 40 40 40 39 39 38 37 37 37 37 37 37 37 38 38 38 37 37
44 44 45 44 44 43 43 43 43 42 42 42 41 41 41 41 41 40 40 40 39 40 41 41 41 40 39 39 38 37 37 37 36 37 37 38 38 38 38 38 38 37 37
39 39 40 41 41 41 40 40 40 40 39 39 38 38 38 38 38 37 38 38 39 40 40 40 40 39 37 37 37 36 37 37 37 38 39 39 39 38 38 38 38 38 38
36 38 39 39 39 39 39 38 37 36 36 36 35 35 36 36 36 36 36 37 38 38 38 37 37 36 35 35 35 35 37 37 38 39 40 40 39 38 38 38 39 39 39
35 36 37 37 37 36 36 36 35 35 35 35 35 35 35 34 34 34 34 35 35 35 35 35 35 35 35 35 35 36 37 38 38 38 39 39 38 37 37 38 38 37 38
33 32 32 32 32 32 33 33 34 34 34 33 33 33 33 33 33 33 34 35 34 33 34 34 34 34 34 34 35 36 36 36 37 38 38 38 37 36 37 36 36 36 37
29 29 29 30 29 29 29 30 30 31 31 30 31 31 31 32 32 32 33 32 32 31 31 32 32 33 34 35 35 36 36 37 37 37 37 36 36 35 35 35 35 35 36
26 27 27 27 27 27 27 27 27 28 28 29 30 30 30 30 30 30 30 30 29 30 30 30 31 32 33 34 34 35 35 35 36 36 35 34 34 34 34 34 35 35 36
Wind_Direction
298 301 304 309 314 318 322 324 325 324 324 324 324 322 320 321 322 320 319 315 313 312 310 310 311 310 309 310 310 308 307 305 306 305 303 301 299 296 295 293 289 288 286
291 293 294 298 303 307 312 316 318 318 316 315 316 315 312 312 313 316 314 313 311 312 311 309 310 310 308 306 306 307 306 304 305 305 304 302 302 301 300 298 295 292 291
285 286 287 290 294 298 302 306 309 310 310 309 310 310 308 308 310 312 311 309 310 310 308 309 309 309 309 307 305 305 305 304 304 303 303 302 302 302 301 300 298 295 294
283 282 283 285 288 290 294 298 301 302 303 303 304 307 306 305 305 307 306 306 307 310 308 306 305 305 304 306 306 306 305 304 303 302 302 302 302 302 302 301 299 299 297
280 282 281 283 286 289 291 295 298 300 301 301 301 303 303 303 303 303 302 302 303 304 305 304 304 303 301 302 303 306 305 304 303 302 302 302 302 301 300 301 301 300 299
280 282 281 282 285 286 289 292 293 297 298 300 301 302 301 300 298 298 298 298 298 299 300 301 303 304 302 300 301 302 304 304 304 303 301 301 301 301 300 300 299 299 299
277 280 281 282 282 283 286 287 289 293 297 299 298 298 298 298 295 294 295 298 297 296 297 298 300 303 301 299 299 300 301 303 304 303 301 300 299 300 299 299 298 298 298
273 276 278 280 280 281 283 283 287 290 292 292 292 294 296 297 296 292 294 296 295 294 295 296 298 299 300 299 298 298 299 299 301 301 301 299 298 298 298 298 298 298 297
272 274 275 277 278 279 279 281 284 285 287 288 290 291 291 292 292 292 292 294 292 292 293 293 295 296 296 296 296 297 297 297 297 299 298 297 297 297 297 298 298 298 298
269 271 272 274 275 277 277 277 279 281 282 283 285 287 287 287 287 288 289 292 291 291 291 292 295 295 295 295 295 295 296 295 295 296 296 296 296 297 297 296 297 297 297
267 269 271 272 273 275 275 275 277 279 281 280 282 284 284 285 286 286 287 289 290 289 289 290 292 294 294 294 294 294 295 295 295 295 295 295 295 295 296 296 296 296 296
266 267 270 271 273 275 276 276 278 278 280 281 282 282 284 285 285 286 287 287 288 287 288 289 291 292 293 292 292 292 293 293 294 293 293 293 294 295 295 295 295 295 295
267 267 268 270 272 274 275 275 275 275 276 279 281 281 283 283 286 287 287 286 286 286 287 288 291 292 292 292 292 291 292 292 292 292 292 292 293 294 294 294 294 294 294
267 267 268 269 270 271 274 275 275 276 277 280 283 281 279 280 283 285 285 285 285 285 285 287 289 290 291 291 292 292 292 291 291 291 291 292 292 293 293 293 293 293 293
266 266 267 268 269 270 272 273 274 275 277 278 280 281 280 280 281 282 282 283 283 283 284 285 287 288 288 289 290 290 290 290 290 291 291 292 293 292 293 293 293 294 294
265 266 266 268 269 271 273 274 274 275 276 277 281 280 279 279 280 281 280 280 281 281 282 283 284 286 286 286 287 288 289 289 290 290 291 292 293 294 294 293 294 295 295
264 265 266 267 268 270 271 273 274 275 275 277 278 279 278 278 279 279 277 277 279 280 280 282 282 284 284 284 285 287 288 289 289 290 292 293 293 294 294 294 294 294 294
264 265 266 267 267 269 270 271 273 274 274 275 276 275 276 277 277 277 276 277 278 279 279 281 282 283 283 285 285 286 287 287 289 291 292 293 293 294 295 295 295 294 294
265 265 266 265 266 267 268 270 273 274 274 275 275 274 274 275 275 276 277 277 277 278 279 281 283 283 284 285 285 285 285 287 289 290 292 293 293 294 295 296 295 294 294
265 266 266 265 265 266 268 270 272 273 274 274 274 273 273 273 274 275 274 275 278 279 281 281 282 282 283 284 285 284 285 286 287 289 291 292 293 293 294 295 295 295 295
267 266 266 265 266 268 269 269 271 273 273 273 273 273 274 273 274 274 275 276 278 279 280 281 282 283 283 284 283 283 283 285 286 288 290 291 292 293 293 293 293 294 294
267 267 267 266 266 268 269 269 269 271 273 273 274 274 275 275 274 275 275 275 276 277 279 281 281 281 282 283 281 281 282 284 286 288 290 291 292 292 292 291 292 293 294
267 268 268 267 267 267 268 269 269 270 271 272 274 274 275 275 275 277 277 278 278 278 280 281 282 282 281 282 283 284 285 286 288 289 290 290 290 291 292 292 293 293 295
269 268 267 267 266 266 267 268 269 271 273 273 273 274 275 275 276 278 279 279 280 280 280 280 282 282 282 283 285 286 287 288 288 289 289 289 291 292 292 292 293 294 295
269 268 267 267 266 266 267 269 270 271 272 274 276 278 278 277 276 278 278 280 280 279 279 280 281 283 285 287 288 287 287 287 289 289 290 290 290 291 291 292 294 296 296
268 266 266 265 265 267 269 270 271 271 273 276 278 278 278 278 277 278 278 279 280 279 280 282 283 285 287 288 289 290 289 289 290 289 290 290 290 290 292 294 295 296 297
Height
5896 5896 5895 5893 5892 5891 5889 5888 5886 5885 5883 5881 5880 5879 5877 5876 5874 5873 5871 5870 5869 5867 5866 5865 5863 5862 5861 5859 5858 5856 5854 5853 5851 5849 5847 5846 5844 5843 5841 5839 5838 5837 5836
5893 5893 5892 5891 5890 5888 5887 5885 5884 5882 5881 5879 5878 5876 5875 5873 5871 5870 5869 5867 5866 5864 5863 5861 5860 5859 5857 5855 5854 5852 5850 5848 5847 5845 5843 5841 5840 5838 5836 5835 5833 5832 5830
5889 5889 5888 5888 5886 5885 5884 5883 5881 5879 5878 5876 5875 5873 5871 5869 5868 5866 5865 5863 5862 5861 5859 5858 5856 5854 5853 5851 5849 5847 5846 5844 5842 5840 5838 5837 5835 5833 5831 5830 5828 5826 5824
5885 5885 5884 5883 5882 5881 5880 5879 5877 5875 5874 5872 5871 5869 5867 5866 5864 5862 5861 5859 5857 5856 5855 5853 5852 5850 5848 5846 5845 5843 5841 5839 5837 5835 5833 5831 5829 5827 5826 5824 5822 5820 5819
5879 5879 5879 5879 5877 5876 5875 5874 5872 5870 5869 5868 5866 5865 5863 5861 5859 5858 5856 5854 5853 5851 5850 5848 5847 5845 5843 5841 5839 5838 5836 5834 5832 5830 5828 5826 5824 5822 5820 5818 5816 5814 5813
5874 5873 5873 5872 5872 5870 5870 5869 5867 5865 5864 5862 5861 5859 5858 5856 5854 5853 5851 5849 5848 5846 5845 5843 5841 5839 5837 5836 5834 5832 5830 5828 5826 5824 5822 5820 5818 5816 5814 5812 5810 5808 5807
5867 5867 5866 5866 5865 5865 5864 5862 5861 5859 5858 5856 5855 5853 5852 5850 5848 5847 5845 5843 5842 5840 5839 5837 5835 5833 5831 5830 5828 5826 5824 5822 5820 5818 5815 5813 5811 5809 5807 5805 5803 5801 5800
5860 5859 5859 5859 5858 5857 5856 5855 5854 5852 5851 5850 5849 5847 5845 5844 5841 5839 5838 5837 5836 5834 5832 5830 5829 5826 5824 5823 5821 5819 5817 5815 5813 5811 5809 5806 5804 5802 5800 5798 5796 5794 5792
5851 5851 5851 5850 5849 5848 5848 5847 5846 5845 5844 5843 5841 5839 5838 5837 5835 5833 5832 5830 5828 5827 5825 5823 5821 5819 5817 5815 5814 5812 5810 5808 5805 5804 5801 5799 5797 5795 5793 5791 5788 5786 5784
5841 5841 5841 5841 5840 5839 5839 5838 5837 5836 5835 5834 5833 5831 5830 5828 5826 5825 5823 5822 5820 5819 5817 5815 5813 5811 5810 5807 5805 5803 5802 5800 5797 5795 5793 5791 5789 5787 5785 5783 5780 5778 5776
5830 5831 5830 5830 5830 5829 5828 5827 5827 5826 5825 5824 5823 5822 5820 5819 5817 5816 5814 5813 5812 5810 5809 5807 5805 5803 5801 5799 5797 5795 5793 5791 5789 5787 5785 5783 5781 5779 5776 5774 5772 5769 5767
5819 5819 5819 5819 5818 5818 5817 5816 5815 5815 5815 5814 5813 5813 5811 5810 5808 5807 5805 5803 5802 5801 5800 5799 5797 5794 5792 5790 5788 5786 5784 5782 5780 5778 5776 5774 5772 5770 5767 5765 5763 5760 5757
5807 5807 5807 5807 5807 5806 5805 5805 5804 5803 5803 5803 5802 5802 5801 5800 5798 5797 5796 5794 5793 5792 5791 5789 5787 5786 5783 5781 5779 5777 5775 5773 5771 5769 5767 5765 5762 5760 5758 5755 5753 5750 5748
5794 5794 5794 5794 5795 5794 5793 5793 5792 5791 5791 5791 5790 5789 5790 5790 5789 5787 5786 5785 5784 5782 5781 5780 5778 5776 5774 5772 5770 5768 5766 5764 5761 5759 5757 5755 5752 5750 5748 5745 5743 5740 5738
5781 5781 5781 5782 5782 5781 5781 5781 5780 5780 5780 5779 5778 5778 5778 5778 5778 5777 5775 5774 5773 5772 5770 5769 5767 5766 5764 5762 5760 5758 5756 5754 5751 5749 5746 5744 5742 5739 5737 5735 5732 5730 5727
5768 5768 5768 5769 5769 5769 5769 5769 5768 5768 5768 5768 5767 5766 5765 5766 5765 5765 5764 5763 5761 5760 5758 5758 5757 5755 5753 5752 5750 5748 5746 5743 5741 5738 5736 5733 5731 5729 5727 5724 5722 5719 5716
5754 5755 5755 5756 5757 5757 5757 5757 5756 5756 5756 5756 5755 5755 5754 5753 5753 5752 5751 5750 5749 5748 5747 5746 5745 5743 5742 5740 5739 5737 5735 5732 5730 5728 5725 5723 5720 5718 5716 5713 5711 5708 5705
5740 5741 5742 5743 5743 5744 5744 5744 5743 5743 5743 5743 5743 5743 5743 5742 5741 5739 5739 5738 5737 5736 5735 5734 5733 5732 5730 5728 5727 5725 5723 5721 5719 5717 5714 5712 5709 5707 5704 5702 5700 5697 5694
5726 5727 5727 5728 5729 5730 5730 5730 5730 5731 5730 5730 5730 5730 5730 5729 5728 5728 5727 5726 5726 5725 5724 5723 5722 5720 5719 5717 5715 5713 5712 5710 5708 5706 5704 5701 5698 5696 5693 5691 5688 5686 5683
5713 5714 5714 5714 5715 5716 5717 5717 5718 5718 5718 5718 5718 5718 5718 5717 5716 5716 5715 5714 5714 5713 5712 5711 5710 5708 5707 5705 5703 5702 5700 5698 5697 5695 5693 5690 5687 5685 5682 5680 5677 5675 5672
5700 5701 5702 5702 5703 5704 5705 5705 5706 5706 5706 5706 5706 5706 5705 5705 5705 5704 5704 5703 5702 5701 5700 5699 5698 5696 5695 5693 5692 5690 5689 5687 5686 5684 5681 5679 5676 5674 5671 5669 5666 5663 5661
5689 5689 5690 5691 5692 5692 5693 5694 5694 5695 5695 5695 5695 5695 5694 5694 5694 5693 5693 5692 5691 5690 5689 5687 5686 5685 5683 5682 5680 5679 5677 5676 5674 5672 5670 5667 5665 5662 5660 5657 5655 5652 5650
5678 5679 5679 5679 5680 5681 5682 5683 5684 5684 5684 5684 5684 5684 5683 5683 5682 5682 5681 5680 5679 5678 5677 5676 5675 5674 5672 5671 5669 5667 5666 5664 5662 5660 5658 5655 5653 5651 5648 5646 5643 5641 5638
5668 5668 5668 5669 5669 5670 5671 5672 5673 5673 5673 5673 5673 5672 5672 5672 5672 5671 5670 5669 5669 5668 5666 5665 5664 5663 5662 5660 5658 5656 5654 5652 5650 5648 5646 5644 5641 5639 5637 5635 5632 5630 5627
5659 5659 5659 5659 5660 5660 5661 5662 5663 5663 5663 5663 5662 5662 5662 5662 5661 5661 5660 5659 5658 5658 5656 5655 5654 5652 5651 5649 5647 5645 5643 5641 5639 5637 5634 5632 5630 5628 5626 5624 5621 5619 5616
5650 5650 5651 5651 5652 5652 5653 5653 5654 5654 5653 5653 5653 5653 5652 5652 5651 5651 5650 5650 5649 5648 5647 5645 5644 5642 5640 5638 5636 5634 5632 5630 5628 5626 5623 5621 5619 5618 5615 5613 5611 5608 5605